GW0294 Weather Reports


time (UTC)temp
C
wind
direction
speed
KPH
gust
KPH
rain 1hr
cm
rain 24hr
cm
rain mn
cm
humidity
%
barometer
mb
20260503050239 10 218 0.0 0.0 0.00 0.00 0.00 49 1014.8
20260503045325 10 102 0.0 0.0 0.00 0.00 0.00 50 1015.0
20260503044423 10 168 0.0 0.0 0.00 0.00 0.00 49 1015.0
20260503044327 10 157 0.0 0.0 0.00 0.00 0.00 49 1014.8
20260503043325 10 157 0.0 0.0 0.00 0.00 0.00 50 1015.0
20260503042324 10 206 0.0 0.0 0.00 0.00 0.00 51 1015.1
20260503041423 10 218 0.0 0.0 0.00 0.00 0.00 50 1015.2
20260503034527 11 206 0.0 0.0 0.00 0.00 0.00 49 1015.5
20260503033526 10 118 0.0 0.0 0.00 0.00 0.00 50 1015.5
20260503032524 10 160 0.0 0.0 0.00 0.00 0.00 52 1015.5
20260503031523 10 220 0.0 0.0 0.00 0.00 0.00 52 1015.6
20260503030525 10 45 0.0 0.0 0.00 0.00 0.00 52 1015.9
20260503024525 10 180 0.0 0.0 0.00 0.00 0.00 51 1015.9
20260503023623 10 143 0.0 0.0 0.00 0.00 0.00 52 1015.9
20260503022624 10 45 0.0 0.0 0.00 0.00 0.00 50 1015.9
20260503020723 11 45 0.0 0.0 0.00 0.00 0.00 50 1016.0
20260503020624 11 45 0.0 0.0 0.00 0.00 0.00 50 1015.9
20260503015623 11 45 0.0 0.0 0.00 0.00 0.00 49 1015.9
20260503013623 11 45 0.0 0.0 0.00 0.00 0.00 46 1015.8
20260503012641 12 45 0.0 0.0 0.00 0.00 0.00 47 1015.9
20260503011624 12 45 0.0 0.0 0.00 0.00 0.00 44 1015.8
20260503010724 12 22 0.0 0.0 0.00 0.00 0.00 41 1015.9
20260503010624 12 22 0.0 0.0 0.00 0.00 0.00 42 1015.9
20260503005623 13 22 0.0 0.0 0.00 0.00 0.00 39 1015.8
20260503004640 13 90 0.0 0.0 0.00 0.00 0.00 39 1016.0
20260503003724 14 180 0.0 0.0 0.00 0.00 0.00 38 1015.9
20260503002739 15 218 0.0 0.0 0.00 0.00 0.00 36 1015.9
20260503000824 15 218 0.0 0.0 0.00 0.00 0.00 34 1016.1
20260502235826 15 243 0.0 0.0 0.00 0.00 0.00 33 1016.2
20260502234839 15 215 0.0 0.0 0.00 0.00 0.00 32 1016.3
20260502233026 16 232 0.0 0.0 0.00 0.00 0.00 32 1016.4
20260502232923 16 223 0.0 0.0 0.00 0.00 0.00 32 1016.3
20260502230024 16 223 0.0 0.0 0.00 0.00 0.00 32 1016.5
20260502225926 16 230 0.0 0.0 0.00 0.00 0.00 32 1016.5
20260502224925 16 235 0.0 0.0 0.00 0.00 0.00 31 1016.6
20260502224024 16 230 0.0 0.0 0.00 0.00 0.00 31 1016.8
20260502223024 16 221 0.0 0.0 0.00 0.00 0.00 31 1017.0
20260502222926 16 228 0.0 0.0 0.00 0.00 0.00 31 1017.0
20260502222025 16 212 0.0 0.0 0.00 0.00 0.00 31 1017.1
20260502221123 16 210 0.0 0.0 0.00 0.00 0.00 30 1017.0
20260502215222 16 211 0.0 0.0 0.00 0.00 0.00 30 1017.1
20260502214224 16 224 0.0 0.0 0.00 0.00 0.00 31 1017.3
20260502213225 16 183 0.0 0.0 0.00 0.00 0.00 32 1017.3
20260502212323 16 212 0.0 0.0 0.00 0.00 0.00 31 1017.7
20260502211325 16 219 0.0 0.0 0.00 0.00 0.00 31 1017.7
20260502210323 16 233 0.0 0.0 0.00 0.00 0.00 32 1017.9
20260502205324 16 214 0.0 0.0 0.00 0.00 0.00 33 1018.0
20260502205223 16 220 0.0 0.0 0.00 0.00 0.00 33 1018.0
20260502202324 15 210 0.0 0.0 0.00 0.00 0.00 33 1018.4
20260502201325 15 230 0.0 0.0 0.00 0.00 0.00 34 1018.7
20260502200324 15 217 0.0 0.0 0.00 0.00 0.00 34 1018.7
20260502195325 15 225 0.0 0.0 0.00 0.00 0.00 33 1019.0
20260502194240 15 191 0.0 0.0 0.00 0.00 0.00 34 1019.1
20260502193240 15 211 0.0 0.0 0.00 0.00 0.00 33 1019.3
20260502192340 15 206 0.0 0.0 0.00 0.00 0.00 33 1019.3
20260502191423 15 202 0.0 0.0 0.00 0.00 0.00 35 1019.5
20260502185524 14 213 0.0 0.0 0.00 0.00 0.00 33 1019.8
20260502184624 15 194 0.0 0.0 0.00 0.00 0.00 33 1020.0
20260502184522 15 173 0.0 0.0 0.00 0.00 0.00 33 1020.0
20260502183527 14 205 0.0 0.0 0.00 0.00 0.00 33 1020.1
20260502182525 14 195 0.0 0.0 0.00 0.00 0.00 34 1020.1
20260502180627 14 204 0.0 0.0 0.00 0.00 0.00 34 1020.3
20260502163623 12 195 0.0 0.0 0.00 0.00 0.00 35 1021.1
20260502151824 11 212 0.0 0.0 0.00 0.00 0.00 44 1021.9
20260502150823 11 229 0.0 0.0 0.00 0.00 0.00 46 1022.2
20260502123122 3 45 0.0 0.0 0.00 0.00 0.00 77 1022.5
20260502122126 2 45 0.0 0.0 0.00 0.00 0.00 82 1022.4
20260502121123 1 45 0.0 0.0 0.00 0.00 0.00 85 1022.2
20260502120222 1 45 0.0 0.0 0.00 0.00 0.00 85 1022.0
20260502114223 0 45 0.0 0.0 0.00 0.00 0.00 85 1021.8
20260502114124 0 45 0.0 0.0 0.00 0.00 0.00 85 1021.9
20260502113124 0 45 0.0 0.0 0.00 0.00 0.00 86 1021.8
20260502112222 0 45 0.0 0.0 0.00 0.00 0.00 87 1021.7
20260502111223 0 45 0.0 0.0 0.00 0.00 0.00 86 1021.6
20260502110224 0 45 0.0 0.0 0.00 0.00 0.00 86 1021.7
20260502105322 0 45 0.0 0.0 0.00 0.00 0.00 85 1021.8
20260502104322 0 45 0.0 0.0 0.00 0.00 0.00 84 1021.7
20260502103340 0 45 0.0 0.0 0.00 0.00 0.00 85 1021.8
20260502102324 0 45 0.0 0.0 0.00 0.00 0.00 83 1021.7
20260502101341 0 45 0.0 0.0 0.00 0.00 0.00 83 1021.8
20260502100422 0 45 0.0 0.0 0.00 0.00 0.00 83 1021.8
20260502091425 0 45 0.0 0.0 0.00 0.00 0.00 83 1021.6
20260502090522 0 45 0.0 0.0 0.00 0.00 0.00 84 1021.7
20260502070623 1 45 0.0 0.0 0.00 0.00 0.00 78 1021.7
20260502065623 1 45 0.0 0.0 0.00 0.00 0.00 76 1021.9
20260502064622 1 45 0.0 0.0 0.00 0.00 0.00 74 1022.0
20260502062638 1 45 0.0 0.0 0.00 0.00 0.00 74 1022.0
20260502061623 1 45 0.0 0.0 0.00 0.00 0.00 75 1022.0
20260502061523 1 45 0.0 0.0 0.00 0.00 0.00 75 1021.9
20260502060541 2 45 0.0 0.0 0.00 0.00 0.00 75 1021.8
20260502055624 2 45 0.0 0.0 0.00 0.00 0.00 73 1021.9
20260502054623 2 45 0.0 0.0 0.00 0.00 0.00 75 1021.9
20260502053722 2 45 0.0 0.0 0.00 0.00 0.00 74 1021.8
20260502052740 2 45 0.0 0.0 0.00 0.00 0.00 72 1021.9
20260502051823 2 45 0.0 0.0 0.00 0.00 0.00 72 1021.9
20260502051737 2 45 0.0 0.0 0.00 0.00 0.00 73 1021.8